(2019 UB7) |
Classification: Apollo [NEO] SPK-ID: 3879732 |
[ hide orbit diagram ]
For accurate long-term ephemerides, please instead use our Horizons system.This orbit viewer was implemented using two-body methods, and hence should not be used for determining accurate long-term trajectories (over several years or decades) or planetary encounter circumstances.
Orbital Elements at Epoch 2458782.5 (2019-Oct-26.0) TDB
Reference: JPL 4 (heliocentric ecliptic J2000)
Element | Value | Uncertainty (1-sigma) | Units |
e | .6576228590760901 | 0.001738 | |
a | 2.039426951009873 | 0.0089836 | au |
q | .6982531686099274 | 0.00046873 | au |
i | 2.068962728364497 | 0.0044675 | deg |
node | 303.4816651574495 | 0.084244 | deg |
peri | 179.9315345671923 | 0.082693 | deg |
M | 339.5476016697219 | 0.15053 | deg |
tp | 2458842.936930608528 (2019-Dec-25.43693061) | 0.045473 | TDB |
period | 1063.801646521827 2.91 | 7.029 0.01924 | d yr |
n | .3384089516847852 | 0.002236 | deg/d |
Q | 3.380600733409819 | 0.014891 | au |
|
| | Orbit Determination Parameters
Additional Information
|
[ show covariance matrix ]
Physical Parameter Table
Parameter |
Symbol |
Value |
Units |
Sigma |
Reference |
Notes |
absolute magnitude |
H |
24.2 |
|
.31464 |
E2019-VI7 |
autocmod 2.8 |
|
[ hide close-approach data ]
Close-Approach Data ...sorted by Date/Time (TDB)
|
Date/Time (TDB) |
Time Uncertainty (days_HH:MM) |
Body |
Nominal Distance (au) |
Minimum Distance (au) |
Maximum Distance (au) |
V-relative (km/s) |
V-infinity (km/s) |
JD (TDB) |
Time Uncertainty (minutes) |
Semi-major axis (km) |
Semi-minor axis (km) |
range-LOV angle (deg) |
N-sigma |
BP |
Orbit Ref. |
Reference |
Modified |
2019-Nov-10 23:42 |
< 00:01 |
Earth |
0.035087100229481 |
0.0348193241482171 |
0.0353548743104024 |
17.5195302561004 |
17.5151951856815 |
2458798.487425737 |
0.0934732838124126 |
13346.3222608227 |
13.6257217280545 |
-0.0269977561062995 |
305.627250671234 |
T |
4 |
CATAB v2.0f-lin.ifort 2019-Nov-14 09:20:23 |
2019-Nov-14 09:20 |
|
|